• In Netherlands
  • List of Countries
  • For 7 days
  • Water Temperature
  • Satellite Maps
  • Weather Map
  • Weather Widgets
  • user-avatar
    Login

    Hourly Weather Malanje

    Today, 18 January, Wednesday

    Time Temperature Precipitation Wind Pressure Humidity
    00:00 +18°C° 0 mm 2 mps 663 mmHg 91%
    01:00 +18°C° 0 mm 2 mps 663 mmHg 92%
    02:00 +18°C° 0.1 mm 2 mps 663 mmHg 93%
    03:00 +18°C° 0.1 mm 2 mps 663 mmHg 93%
    04:00 +18°C° 0.1 mm 2 mps 663 mmHg 94%
    05:00 +18°C° 0 mm 2 mps 664 mmHg 93%
    06:00 +18°C° 0 mm 2 mps 664 mmHg 91%
    07:00 +19°C° 0 mm 2 mps 665 mmHg 88%
    08:00 +21°C° 0.1 mm 2 mps 665 mmHg 80%
    09:00 +24°C° 0.1 mm 2 mps 666 mmHg 73%
    10:00 +26°C° 0.1 mm 2 mps 666 mmHg 65%
    11:00 +27°C° 0.3 mm 2 mps 666 mmHg 62%
    12:00 +28°C° 0.3 mm 3 mps 666 mmHg 59%
    13:00 +29°C° 0.3 mm 3 mps 666 mmHg 56%
    14:00 +28°C° 0.2 mm 3 mps 665 mmHg 61%
    15:00 +27°C° 0.2 mm 3 mps 664 mmHg 66%
    16:00 +26°C° 0.2 mm 3 mps 663 mmHg 70%
    17:00 +25°C° 0.1 mm 3 mps 664 mmHg 73%
    18:00 +24°C° 0.1 mm 2 mps 664 mmHg 76%
    19:00 +23°C° 0.1 mm 2 mps 664 mmHg 79%
    20:00 +21°C° 0.2 mm 2 mps 664 mmHg 81%
    21:00 +21°C° 0.2 mm 2 mps 664 mmHg 83%
    22:00 +20°C° 0.2 mm 2 mps 665 mmHg 85%
    23:00 +20°C° 0 mm 2 mps 665 mmHg 86%

    Tomorrow, 19 January, Thursday

    Time Temperature Precipitation Wind Pressure Humidity
    00:00 +20°C° 0 mm 2 mps 664 mmHg 87%
    01:00 +19°C° 0 mm 2 mps 664 mmHg 87%
    02:00 +19°C° 0 mm 2 mps 664 mmHg 88%
    03:00 +19°C° 0 mm 2 mps 664 mmHg 89%
    04:00 +18°C° 0 mm 2 mps 664 mmHg 90%
    05:00 +20°C° 0.1 mm 1 mps 664 mmHg 88%
    06:00 +20°C° 0.1 mm 1 mps 665 mmHg 87%
    07:00 +21°C° 0.1 mm 1 mps 665 mmHg 86%
    08:00 +21°C° 0.3 mm 1 mps 666 mmHg 84%
    09:00 +22°C° 0.3 mm 1 mps 666 mmHg 82%
    10:00 +22°C° 0.3 mm 1 mps 666 mmHg 80%
    11:00 +24°C° 0.1 mm 1 mps 666 mmHg 74%
    12:00 +25°C° 0.1 mm 1 mps 666 mmHg 68%
    13:00 +27°C° 0.1 mm 2 mps 666 mmHg 62%
    14:00 +27°C° 0.1 mm 2 mps 666 mmHg 63%
    15:00 +27°C° 0.1 mm 2 mps 665 mmHg 63%
    16:00 +27°C° 0.1 mm 2 mps 665 mmHg 64%
    17:00 +25°C° 0 mm 2 mps 665 mmHg 68%
    18:00 +23°C° 0 mm 2 mps 664 mmHg 73%
    19:00 +21°C° 0 mm 2 mps 664 mmHg 77%
    20:00 +21°C° 0 mm 1 mps 664 mmHg 77%
    21:00 +21°C° 0 mm 1 mps 665 mmHg 78%
    22:00 +20°C° 0 mm 1 mps 665 mmHg 78%
    23:00 +20°C° 0 mm 1 mps 665 mmHg 79%

    Day after tomorrow, 20 January, Friday

    Time Temperature Precipitation Wind Pressure Humidity
    00:00 +20°C° 0 mm 1 mps 664 mmHg 80%
    01:00 +20°C° 0 mm 1 mps 664 mmHg 81%
    02:00 +20°C° 0 mm 1 mps 664 mmHg 80%
    03:00 +20°C° 0 mm 1 mps 664 mmHg 79%
    04:00 +20°C° 0 mm 1 mps 663 mmHg 79%
    05:00 +20°C° 0 mm 1 mps 664 mmHg 78%
    06:00 +21°C° 0 mm 1 mps 665 mmHg 77%
    07:00 +22°C° 0 mm 1 mps 665 mmHg 76%
    08:00 +24°C° 0 mm 1 mps 666 mmHg 68%
    09:00 +26°C° 0 mm 1 mps 666 mmHg 61%
    10:00 +28°C° 0 mm 1 mps 667 mmHg 53%
    11:00 +29°C° 0 mm 1 mps 666 mmHg 50%
    12:00 +30°C° 0 mm 1 mps 666 mmHg 46%
    13:00 +31°C° 0 mm 1 mps 666 mmHg 43%
    14:00 +31°C° 0 mm 2 mps 665 mmHg 45%
    15:00 +30°C° 0 mm 2 mps 664 mmHg 47%
    16:00 +30°C° 0 mm 2 mps 664 mmHg 49%
    17:00 +28°C° 0 mm 2 mps 664 mmHg 54%
    18:00 +26°C° 0 mm 2 mps 664 mmHg 59%
    19:00 +24°C° 0 mm 2 mps 663 mmHg 64%
    20:00 +23°C° 0 mm 2 mps 664 mmHg 66%
    21:00 +21°C° 0 mm 2 mps 664 mmHg 68%
    22:00 +20°C° 0 mm 2 mps 665 mmHg 70%
    23:00 +20°C° 0 mm 2 mps 664 mmHg 74%

    21 January, Saturday

    Time Temperature Precipitation Wind Pressure Humidity
    00:00 +19°C° 0 mm 2 mps 664 mmHg 78%
    01:00 +18°C° 0 mm 3 mps 663 mmHg 83%
    02:00 +18°C° 0 mm 2 mps 663 mmHg 87%
    03:00 +17°C° 0 mm 2 mps 663 mmHg 91%
    04:00 +17°C° 0 mm 2 mps 662 mmHg 94%
    05:00 +17°C° 0 mm 2 mps 663 mmHg 92%
    06:00 +19°C° 0 mm 1 mps 664 mmHg 90%
    07:00 +20°C° 0 mm 1 mps 664 mmHg 88%
    08:00 +23°C° 0 mm 1 mps 665 mmHg 76%
    09:00 +25°C° 0 mm 2 mps 666 mmHg 64%
    10:00 +28°C° 0 mm 2 mps 667 mmHg 51%
    11:00 +29°C° 0 mm 2 mps 666 mmHg 48%
    12:00 +30°C° 0 mm 2 mps 666 mmHg 44%
    13:00 +31°C° 0 mm 2 mps 665 mmHg 41%
    14:00 +31°C° 0 mm 3 mps 664 mmHg 43%
    15:00 +30°C° 0 mm 3 mps 664 mmHg 46%
    16:00 +30°C° 0 mm 3 mps 663 mmHg 48%
    17:00 +28°C° 0 mm 3 mps 663 mmHg 53%
    18:00 +26°C° 0 mm 3 mps 664 mmHg 59%
    19:00 +24°C° 0 mm 3 mps 664 mmHg 64%
    20:00 +22°C° 0 mm 3 mps 664 mmHg 66%
    21:00 +21°C° 0 mm 3 mps 664 mmHg 67%
    22:00 +21°C° 0 mm 4 mps 665 mmHg 69%
    23:00 +20°C° 0 mm 3 mps 664 mmHg 76%

    22 January, Sunday

    Time Temperature Precipitation Wind Pressure Humidity
    00:00 +19°C° 0 mm 3 mps 664 mmHg 82%
    01:00 +18°C° 0 mm 3 mps 663 mmHg 89%
    02:00 +17°C° 0 mm 3 mps 663 mmHg 90%
    03:00 +17°C° 0 mm 2 mps 663 mmHg 92%
    04:00 +16°C° 0 mm 2 mps 663 mmHg 93%
    05:00 +17°C° 0 mm 2 mps 663 mmHg 92%
    06:00 +17°C° 0 mm 2 mps 664 mmHg 90%
    07:00 +18°C° 0 mm 2 mps 665 mmHg 88%
    08:00 +20°C° 0 mm 2 mps 666 mmHg 77%
    09:00 +24°C° 0 mm 2 mps 666 mmHg 65%
    10:00 +27°C° 0 mm 2 mps 667 mmHg 54%
    11:00 +28°C° 0 mm 2 mps 666 mmHg 50%
    12:00 +29°C° 0 mm 3 mps 665 mmHg 46%
    13:00 +31°C° 0 mm 3 mps 665 mmHg 42%
    14:00 +30°C° 0 mm 3 mps 664 mmHg 45%
    15:00 +30°C° 0 mm 4 mps 664 mmHg 47%
    16:00 +30°C° 0 mm 4 mps 663 mmHg 50%
    17:00 +28°C° 0.1 mm 4 mps 664 mmHg 56%
    18:00 +25°C° 0.1 mm 3 mps 664 mmHg 63%
    19:00 +22°C° 0.1 mm 3 mps 664 mmHg 69%
    20:00 +21°C° 0 mm 3 mps 664 mmHg 71%
    21:00 +21°C° 0 mm 3 mps 665 mmHg 74%
    22:00 +20°C° 0 mm 3 mps 665 mmHg 76%
    23:00 +19°C° 0 mm 3 mps 665 mmHg 81%

    23 January, Monday

    Time Temperature Precipitation Wind Pressure Humidity
    00:00 +18°C° 0 mm 3 mps 665 mmHg 86%
    01:00 +17°C° 0 mm 3 mps 664 mmHg 90%
    02:00 +17°C° 0 mm 3 mps 664 mmHg 91%
    03:00 +17°C° 0 mm 2 mps 664 mmHg 92%
    04:00 +17°C° 0 mm 2 mps 664 mmHg 93%
    05:00 +17°C° 0 mm 3 mps 664 mmHg 92%
    06:00 +17°C° 0 mm 3 mps 665 mmHg 91%
    07:00 +18°C° 0 mm 3 mps 665 mmHg 89%
    08:00 +19°C° 0 mm 3 mps 666 mmHg 81%
    09:00 +21°C° 0 mm 3 mps 667 mmHg 73%
    10:00 +24°C° 0 mm 3 mps 667 mmHg 65%
    11:00 +26°C° 0 mm 3 mps 667 mmHg 59%
    12:00 +28°C° 0 mm 3 mps 666 mmHg 52%
    13:00 +29°C° 0 mm 4 mps 666 mmHg 46%
    14:00 +29°C° 0 mm 4 mps 666 mmHg 47%
    15:00 +29°C° 0 mm 4 mps 665 mmHg 48%
    16:00 +29°C° 0 mm 4 mps 665 mmHg 50%
    17:00 +27°C° 0 mm 3 mps 665 mmHg 56%
    18:00 +25°C° 0 mm 3 mps 665 mmHg 63%
    19:00 +22°C° 0 mm 3 mps 665 mmHg 69%
    20:00 +21°C° 0 mm 3 mps 665 mmHg 72%
    21:00 +20°C° 0 mm 2 mps 665 mmHg 75%
    22:00 +19°C° 0 mm 2 mps 666 mmHg 78%
    23:00 +19°C° 0 mm 2 mps 665 mmHg 80%
    Show more